User: anonymous   Login
Location: Haulchin
(50.3172°N, 3.4360°E)
Time: 13:12:34
(UTC+00:00)
Language:

Cosmos 968 Rocket - Orbit

View from above orbital plane
View from above orbital plane
View from above satellite
View from above satellite

Ground track
Ground track

The orbit data is extracted from the following two-line orbital elements,

1 10521U 77119B   24195.91669989  .00000535  00000-0  17226-3 0  9996
2 10521  74.0260 163.5239 0022113 266.4822  93.3805 14.41601296444080
Epoch (UTC): 13 July 2024 22:00:02
Eccentricity: 0.0022113
inclination: 74.0260°
perigee height: 737 km
apogee height: 769 km
right ascension of ascending node: 163.5239°
argument of perigee: 266.4822°
revolutions per day: 14.41601296
mean anomaly at epoch: 93.3805°
orbit number at epoch: 44408

The dashed part of the orbit path shows where the satellite is in the earth's shadow,  

DLR